Location: Wiesbaden
(50.0830°N, 8.2500°E)
Time: 06:01:59
(UTC+02:00)

ISS - Pass Details

Date: 29 March 2020
Orbit: 417 x 423 km, 51.6° (Epoch: 29 March)

Event Time Altitude Azimuth Distance (km) Brightness Sun altitude
Rises 21:42:13 0° 286° (WNW) 2,363 1.6 -17.1°
Reaches altitude 10° 21:44:19 10° 285° (WNW) 1,498 0.3 -17.4°
Maximum altitude 21:47:40 85° 200° (SSW) 425 -3.9 -17.9°
Enters shadow 21:48:12 61° 117° (ESE) 479 -3.9 -18.0°
